軌道要素
Epoch 2020 Sept. 28.0 TT = JDT 2459120.5
T 2020 Oct. 3.77812 TT Rudenko
q 1.1699041 (2000.0) P Q
n 0.18112292 Peri. 59.78630 -0.56256458 +0.82674661
a 3.0937635 Node 175.97561 -0.77393909 -0.52520324
e 0.6218508 Incl. 2.72550 -0.29075656 -0.20162242
P 5.44
From 617 observations 2003 Apr. 29-2015 Sept. 15, mean residual 0".8.
|